Waarnemingen

Advertentie
Mijn weer
Brüssel, België (6451): temperatuur & dauwpunt: 16.05.2019 19:00:00 - 22.05.2019 19:00:00 (CEST)Brüssel, België (6451): windsnelheid & windstoten: 16.05.2019 19:00:00 - 22.05.2019 19:00:00 (CEST)Brüssel, België (6451): windrichting: 16.05.2019 19:00:00 - 22.05.2019 19:00:00 (CEST)Brüssel, België (6451): luchtdruk: 16.05.2019 19:00:00 - 22.05.2019 19:00:00 (CEST)Brüssel, België (6451): zicht: 16.05.2019 19:00:00 - 22.05.2019 19:00:00 (CEST)
Datum & Tijd tt [°C] td [°C] ff [km/u] ff [kn] fx [km/u] fx [kn] dd ppp [hPa] vv [km]
22.05.2019 19:00:00 17,1 5,8 13 7 29 16 NNW 1020,1 10
22.05.2019 18:00:00 17,3 4,4 16 9 29 16 NNW 1020,2 10
22.05.2019 17:00:00 18,3 5,1 18 10 - - NW 1020,2 10
22.05.2019 16:00:00 17,7 6,3 18 10 36 19 WNW 1020,2 10
22.05.2019 15:00:00 19,1 6,4 16 9 36 19 WNW 1020,3 10
22.05.2019 14:00:00 18,0 8,3 13 7 - - NW 1020,5 10
22.05.2019 13:00:00 17,5 8,3 11 6 18 10 W 1020,7 15
22.05.2019 12:00:00 16,7 10,2 4 2 11 6 - 1020,8 10
22.05.2019 11:00:00 14,5 9,1 4 2 - - - 1020,7 10
22.05.2019 10:00:00 13,0 8,9 4 2 11 6 - 1020,8 10
22.05.2019 09:00:00 11,2 8,5 4 2 7 4 - 1020,8 10
22.05.2019 08:00:00 10,1 8,4 5 3 - - ZW 1020,6 10
22.05.2019 07:00:00 9,0 7,6 5 3 11 6 W 1020,4 10
22.05.2019 06:00:00 8,0 6,9 8 4 11 6 WNW 1020,4 10
22.05.2019 05:00:00 8,5 7,5 8 4 - - WNW 1020,3 10
22.05.2019 04:00:00 9,2 8,0 8 4 14 8 NW 1020,1 10
22.05.2019 03:00:00 9,4 8,5 8 4 11 6 NW 1019,8 5
22.05.2019 02:00:00 8,3 7,7 4 2 - - - 1019,6 8
22.05.2019 01:00:00 8,5 7,5 9 5 11 6 WNW 1019,6 10
22.05.2019 00:00:00 8,8 7,6 8 4 11 6 WNW 1019,6 10
21.05.2019 23:00:00 9,7 8,2 8 4 - - NW 1019,4 10
21.05.2019 22:00:00 11,1 8,6 13 7 22 12 NNW 1019,2 10
21.05.2019 21:00:00 12,7 9,3 11 6 25 14 N 1018,5 10
21.05.2019 20:00:00 14,1 8,7 13 7 - - NNW 1018,1 10
21.05.2019 19:00:00 15,4 8,0 21 11 32 18 NNW 1017,9 10
21.05.2019 18:00:00 15,5 8,9 22 12 36 19 NNW 1017,7 10
21.05.2019 17:00:00 16,1 8,9 24 13 - - NNW 1017,5 10
21.05.2019 16:00:00 16,3 9,0 26 14 40 21 NW 1017,1 10
21.05.2019 15:00:00 16,0 9,7 22 12 36 19 NW 1016,8 10
21.05.2019 14:00:00 14,9 9,5 21 11 - - NNW 1016,6 10
21.05.2019 13:00:00 14,2 9,1 26 14 40 21 NW 1016,3 10
21.05.2019 12:00:00 13,6 9,2 22 12 40 21 NNW 1016,0 9
21.05.2019 11:00:00 12,5 9,0 22 12 - - NW 1015,7 9
21.05.2019 10:00:00 11,4 8,5 22 12 32 18 NW 1015,5 9
21.05.2019 09:00:00 10,5 8,4 15 8 29 16 NW 1015,1 8
21.05.2019 08:00:00 9,9 7,9 18 10 - - NW 1014,6 8
21.05.2019 07:00:00 9,6 8,2 16 9 32 18 NW 1014,0 8
21.05.2019 06:00:00 9,6 8,1 21 11 32 18 WNW 1013,8 7
21.05.2019 05:00:00 9,6 8,9 15 8 - - WNW 1013,5 4,0
21.05.2019 04:00:00 9,7 8,9 18 10 29 16 NW 1013,4 5
21.05.2019 03:00:00 10,0 9,3 15 8 25 14 WNW 1013,3 6
21.05.2019 02:00:00 9,9 9,3 16 9 - - NW 1013,3 3,5
21.05.2019 01:00:00 10,2 9,8 13 7 25 14 NW 1013,0 2,0
21.05.2019 00:00:00 10,3 9,8 13 7 25 14 NW 1013,3 4,5
20.05.2019 23:00:00 10,8 10,3 16 9 - - NW 1012,9 3,8
20.05.2019 22:00:00 11,2 10,5 15 8 25 14 WNW 1012,5 3,8
20.05.2019 21:00:00 11,0 10,4 15 8 25 14 WNW 1011,9 2,5
20.05.2019 20:00:00 11,3 10,6 15 8 - - NW 1011,7 4,5
20.05.2019 19:00:00 11,9 10,3 15 8 29 16 NW 1011,5 8
20.05.2019 18:00:00 12,3 10,2 18 10 25 14 WNW 1011,2 10
20.05.2019 17:00:00 12,9 10,7 16 9 - - WNW 1011,0 10
20.05.2019 16:00:00 12,5 10,5 16 9 25 14 WNW 1010,9 10
20.05.2019 15:00:00 12,3 10,5 16 9 25 14 NW 1011,0 10
20.05.2019 14:00:00 12,4 10,6 15 8 - - NNW 1010,6 10
20.05.2019 13:00:00 12,5 10,8 13 7 22 12 NW 1010,2 10
20.05.2019 12:00:00 12,3 10,7 15 8 25 14 NW 1009,6 10
20.05.2019 11:00:00 12,1 10,9 9 5 - - NW 1009,4 10
20.05.2019 10:00:00 11,4 10,7 11 6 18 10 NW 1009,3 4,7
20.05.2019 09:00:00 10,9 10,2 11 6 22 12 WNW 1009,1 3,1
20.05.2019 08:00:00 10,8 10,3 9 5 - - WNW 1008,7 2,6
20.05.2019 07:00:00 10,6 10,1 9 5 18 10 NW 1008,2 1,8
20.05.2019 06:00:00 10,6 10,1 11 6 18 10 NW 1008,2 2,0
20.05.2019 05:00:00 10,6 10,2 11 6 - - NW 1008,0 2,5
20.05.2019 04:00:00 10,7 10,2 11 6 18 10 NW 1007,9 3,5
20.05.2019 03:00:00 10,9 10,5 11 6 18 10 NW 1007,9 2,0
20.05.2019 02:00:00 10,8 10,4 13 7 - - NW 1008,0 1,2
20.05.2019 01:00:00 11,0 10,6 15 8 18 10 NW 1007,8 1,1
20.05.2019 00:00:00 11,1 10,6 13 7 18 10 NW 1007,9 1,5
19.05.2019 23:00:00 11,3 10,9 9 5 - - NW 1008,0 2,0
19.05.2019 22:00:00 11,5 10,8 16 9 25 14 NW 1007,8 3,0
19.05.2019 21:00:00 11,7 10,9 13 7 25 14 NW 1007,5 2,5
19.05.2019 20:00:00 12,3 11,2 21 11 - - NW 1007,1 6
19.05.2019 19:00:00 13,0 11,6 16 9 29 16 NW 1007,2 7
19.05.2019 18:00:00 14,9 11,9 18 10 29 16 NW 1006,9 7
19.05.2019 17:00:00 17,4 13,0 18 10 - - NW 1006,4 7
19.05.2019 16:00:00 17,4 13,2 13 7 22 12 NW 1006,4 7
19.05.2019 15:00:00 16,8 12,8 16 9 25 14 NW 1006,6 7
19.05.2019 14:00:00 17,4 12,9 13 7 - - NNW 1006,7 7
19.05.2019 13:00:00 16,6 12,5 13 7 29 16 N 1006,6 6
19.05.2019 12:00:00 16,0 13,7 13 7 22 12 NW 1006,6 3,9
19.05.2019 11:00:00 14,6 12,7 15 8 - - NW 1006,9 3,9
19.05.2019 10:00:00 13,8 12,5 13 7 18 10 NW 1006,9 2,5
19.05.2019 09:00:00 13,2 11,7 8 4 14 8 NW 1007,0 3,7
19.05.2019 08:00:00 13,1 11,4 8 4 - - NW 1006,8 3,7
19.05.2019 07:00:00 12,8 10,7 5 3 11 6 NW 1006,6 6
19.05.2019 06:00:00 12,4 11,2 5 3 11 6 NW 1006,3 4,5
19.05.2019 05:00:00 12,3 10,7 4 2 - - NW 1006,5 5
19.05.2019 04:00:00 12,5 11,0 4 2 7 4 N 1006,6 5
19.05.2019 03:00:00 12,4 10,5 5 3 7 4 NW 1006,6 6
19.05.2019 02:00:00 13,0 10,9 5 3 - - N 1007,0 7
19.05.2019 01:00:00 13,5 11,1 8 4 11 6 NNW 1007,2 7
19.05.2019 00:00:00 14,1 10,4 5 3 11 6 NW 1007,4 10
18.05.2019 23:00:00 15,0 10,5 2 1 - - - 1007,3 10
18.05.2019 22:00:00 15,4 12,6 2 1 11 6 - 1007,2 10
18.05.2019 21:00:00 15,9 11,2 5 3 11 6 NW 1006,8 10
18.05.2019 20:00:00 16,0 12,6 4 2 - - N 1006,4 10
18.05.2019 19:00:00 17,6 11,3 5 3 14 8 W 1006,1 10
18.05.2019 18:00:00 19,1 8,8 2 1 7 4 - 1005,8 10
18.05.2019 17:00:00 19,2 10,7 2 1 - - - 1005,9 10
18.05.2019 16:00:00 19,1 8,9 4 2 11 6 - 1005,9 10
18.05.2019 15:00:00 19,4 11,3 5 3 14 8 O 1006,1 10
18.05.2019 14:00:00 18,0 10,3 5 3 - - - 1006,4 10
18.05.2019 13:00:00 16,2 10,0 5 3 11 6 NNO 1006,5 10
18.05.2019 12:00:00 14,7 9,5 5 3 14 8 ONO 1006,8 9
18.05.2019 11:00:00 13,3 9,9 5 3 - - ONO 1006,6 7
18.05.2019 10:00:00 12,8 10,1 5 3 11 6 O 1006,5 7
18.05.2019 09:00:00 12,3 10,6 2 1 4 2 - 1006,2 5
18.05.2019 08:00:00 10,5 9,7 2 1 - - - 1006,0 7
18.05.2019 07:00:00 8,1 7,3 4 2 7 4 OZO 1005,8 6
18.05.2019 06:00:00 7,3 6,9 2 1 4 2 OZO 1005,8 7
18.05.2019 05:00:00 8,8 8,3 2 1 - - - 1005,8 10
18.05.2019 04:00:00 9,3 8,5 2 1 4 2 NO 1006,0 10
18.05.2019 03:00:00 9,6 8,5 4 2 4 2 ONO 1006,2 10
18.05.2019 02:00:00 9,9 8,6 0 0 - - N 1006,1 10
18.05.2019 01:00:00 10,1 8,5 0 0 4 2 N 1006,4 10
18.05.2019 00:00:00 10,6 8,6 4 2 7 4 ZO 1006,5 10
17.05.2019 23:00:00 11,1 8,1 4 2 - - O 1006,6 10
17.05.2019 22:00:00 11,1 8,4 4 2 7 4 ONO 1006,7 10
17.05.2019 21:00:00 11,7 8,6 2 1 7 4 ONO 1006,5 10
17.05.2019 20:00:00 12,1 8,0 5 3 - - ONO 1006,3 10
17.05.2019 19:00:00 12,3 8,1 5 3 11 6 O 1006,4 10
17.05.2019 18:00:00 12,1 8,1 8 4 14 8 ONO 1006,7 10
17.05.2019 17:00:00 11,9 7,7 8 4 - - ONO 1007,0 10
17.05.2019 16:00:00 12,6 7,9 8 4 18 10 NNO 1007,0 10
17.05.2019 15:00:00 11,4 7,5 11 6 18 10 ONO 1007,4 10
17.05.2019 14:00:00 11,9 8,1 7 4 - - ONO 1007,3 16
17.05.2019 13:00:00 11,0 7,7 8 4 18 10 ONO 1007,3 10
17.05.2019 12:00:00 10,5 7,8 11 6 18 10 ONO 1007,4 10
17.05.2019 11:00:00 10,2 7,7 9 5 - - ONO 1007,9 10
17.05.2019 10:00:00 10,3 7,1 8 4 11 6 ONO 1008,2 8
17.05.2019 09:00:00 9,3 7,9 4 2 14 8 ONO 1008,6 7
17.05.2019 08:00:00 9,1 7,5 9 5 - - ONO 1008,8 8
17.05.2019 07:00:00 8,9 7,8 5 3 14 8 ONO 1008,9 6
17.05.2019 06:00:00 9,1 7,4 9 5 18 10 O 1008,9 7
17.05.2019 05:00:00 9,5 7,0 7 4 - - ONO 1009,1 15
17.05.2019 04:00:00 10,1 6,7 9 5 18 10 O 1009,4 10
17.05.2019 03:00:00 10,0 6,8 5 3 11 6 ONO 1010,0 10
17.05.2019 02:00:00 10,2 5,0 4 2 - - O 1010,7 10
17.05.2019 01:00:00 10,3 5,4 5 3 11 6 ONO 1011,4 10
17.05.2019 00:00:00 10,5 5,3 5 3 7 4 NO 1011,9 10
16.05.2019 23:00:00 12,2 4,9 5 3 - - O 1012,5 10
16.05.2019 22:00:00 12,6 5,7 8 4 14 8 ONO 1013,0 10
16.05.2019 21:00:00 13,9 6,0 5 3 22 12 O 1013,0 10
16.05.2019 20:00:00 15,2 5,7 11 6 - - ONO 1013,4 10
16.05.2019 19:00:00 16,0 5,2 9 5 32 18 ONO 1014,0 10

tt = temperatuur
td = dauwpunt
ff = windsnelheid
fx = windstoten
dd = windrichting
ppp = luchtdruk
vv = zicht

Weerstations in de omgeving